[[{"header":{"parameterUnit":"m.s-1","parameterCategory":1,"la1":30.2992,"la2":30.254,"lo1":-89.0895,"lo2":-89.0443,"dy":0.0025,"dx":0.0025,"nx":19,"ny":19,"refTime":"2026-04-15T21:00:00:Z","depth":0,"parameterNumber":2,"parameterNumberName":"U-component_of_WINDS"},"data":[0,0,0,-1.2282,-1.2284,-1.2379,-1.2379,-1.25,-1.2501,0,0,0,0,0,0,0,0,0,0,0,-1.2252,-1.2253,-1.2282,-1.2284,-1.2379,-1.2379,-1.2499,-1.2501,0,0,0,0,0,0,0,0,0,0,0,-1.2252,-1.2253,-1.2254,-1.2284,-1.2379,-1.2379,-1.2499,-1.2428,0,0,0,0,0,0,0,0,0,0,-1.2336,-1.2307,-1.2252,-1.2254,-1.2285,-1.2378,-1.2379,-1.2425,-1.2432,-1.2456,0,-1.2475,0,-1.249,-1.2508,-1.2509,0,0,0,-1.2285,-1.2301,-1.2327,-1.2254,-1.2286,-1.2378,-1.2336,-1.2429,-1.2438,-1.2466,-1.2477,-1.2482,-1.2492,-1.2509,-1.251,-1.2638,-1.2639,0,0,-1.228,-1.2269,-1.2321,-1.2333,-1.2317,-1.2333,-1.2339,-1.2434,-1.2446,-1.2478,-1.2485,-1.2494,-1.251,-1.2511,-1.2638,-1.2638,0,0,0,-1.2264,-1.2265,-1.2289,-1.2328,-1.2345,-1.2336,-1.2343,-1.2442,-1.2451,-1.2486,-1.2495,-1.2511,-1.2512,-1.2637,-1.2638,-1.2653,0,0,0,-1.2261,-1.2256,-1.2287,-1.2281,-1.2343,-1.2394,-1.2348,-1.2444,-1.2455,-1.2495,-1.2511,-1.2513,-1.2637,-1.2638,-1.2652,-1.2663,0,0,0,-1.2246,-1.2254,-1.2267,-1.228,-1.2321,-1.2393,-1.2408,-1.2447,-1.2461,-1.2509,-1.2514,-1.2636,-1.2637,-1.265,-1.266,-1.2694,0,0,0,-1.2228,-1.228,-1.2267,-1.2329,-1.232,-1.2401,-1.2407,-1.2469,-1.2512,-1.2511,-1.2637,-1.2638,-1.265,-1.2659,-1.2692,-1.272,-1.273,0,0,-1.2287,-1.2286,-1.2323,-1.2315,-1.2396,-1.2388,-1.2472,-1.2522,-1.2538,-1.2604,-1.2607,-1.2652,-1.266,-1.2693,-1.2791,-1.2799,0,0,0,-1.2338,-1.2365,-1.2389,-1.2429,-1.2468,-1.2503,-1.2542,-1.2561,-1.2617,-1.2569,-1.2673,-1.2678,-1.2698,-1.2712,-1.2719,-1.2737,-1.2644,-1.2643,-1.2643,-1.2406,-1.2422,-1.2485,-1.2513,-1.2551,-1.2591,-1.2624,-1.2656,-1.2662,-1.2686,-1.2706,-1.2763,-1.2779,-1.2785,-1.2803,-1.2722,-1.2722,-1.2722,-1.2722,-1.2495,-1.2535,-1.254,-1.2603,-1.262,-1.2673,-1.2713,-1.2715,-1.2768,-1.275,-1.2768,-1.2747,-1.2793,-1.281,-1.2723,-1.2723,-1.2723,-1.2723,-1.2722,-1.2542,-1.2564,-1.2585,-1.2645,-1.2689,-1.2715,-1.2766,-1.2779,-1.2793,-1.2811,-1.2834,-1.2834,-1.2836,-1.2821,-1.2821,-1.2821,-1.2821,-1.2821,-1.2822,-1.2582,-1.2606,-1.2646,-1.2692,-1.2719,-1.2757,-1.2797,-1.2825,-1.286,-1.2866,-1.2866,-1.287,-1.2794,-1.2775,-1.2825,-1.2824,-1.2824,-1.2824,-1.2823,-1.2668,-1.265,-1.2712,-1.274,-1.2795,-1.2838,-1.2855,-1.291,-1.2935,-1.296,-1.2959,-1.2901,-1.2901,-1.2896,-1.2881,-1.2955,-1.2955,-1.2955,-1.2955,-1.2708,-1.2709,-1.2776,-1.2819,-1.2863,-1.2884,-1.2954,-1.2986,-1.3016,-1.3032,-1.3024,-1.3004,-1.2998,-1.3002,-1.2995,-1.298,-1.3078,-1.3079,-1.3079,-1.2762,-1.2768,-1.2825,-1.2853,-1.2897,-1.2934,-1.3001,-1.3051,-1.3082,-1.3084,-1.3046,-1.3041,-1.3009,-1.2998,-1.3,-1.2988,-1.2962,0,0]},{"header":{"parameterUnit":"m.s-1","parameterCategory":1,"la1":30.2992,"la2":30.254,"lo1":-89.0895,"lo2":-89.0443,"dy":0.0025,"dx":0.0025,"nx":19,"ny":19,"refTime":"2026-04-15T21:00:00:Z","depth":0,"parameterNumber":3,"parameterNumberName":"V-component_of_WINDS"},"data":[0,0,0,3.2178,3.2179,3.2243,3.2243,3.2328,3.2328,0,0,0,0,0,0,0,0,0,0,0,3.2163,3.2164,3.2177,3.2179,3.2243,3.2243,3.2327,3.2328,0,0,0,0,0,0,0,0,0,0,0,3.2163,3.2164,3.2165,3.2179,3.2243,3.2243,3.2327,3.2278,0,0,0,0,0,0,0,0,0,0,3.2215,3.2207,3.2164,3.2165,3.218,3.2242,3.2243,3.2275,3.2281,3.2301,0,3.2323,0,3.2327,3.2335,3.2335,0,0,0,3.2175,3.2202,3.2216,3.2165,3.218,3.2242,3.2213,3.2278,3.2284,3.2309,3.2324,3.2327,3.2329,3.2335,3.2336,3.2471,3.2472,0,0,3.2172,3.2177,3.2211,3.222,3.2213,3.2211,3.2215,3.2282,3.2298,3.2324,3.2329,3.233,3.2336,3.2336,3.247,3.2471,0,0,0,3.2164,3.2174,3.2186,3.2217,3.2228,3.2213,3.2217,3.2295,3.2298,3.233,3.2331,3.2336,3.2337,3.2469,3.247,3.2515,0,0,0,3.2162,3.217,3.2185,3.2188,3.2227,3.2263,3.2229,3.2294,3.2301,3.2331,3.2336,3.2338,3.2468,3.247,3.2512,3.2534,0,0,0,3.2158,3.2169,3.2181,3.2188,3.2216,3.2262,3.2269,3.2295,3.2302,3.2335,3.2339,3.2468,3.247,3.2509,3.253,3.257,0,0,0,3.2154,3.2219,3.2181,3.2255,3.2216,3.229,3.2268,3.2323,3.2356,3.2337,3.2468,3.247,3.2508,3.2527,3.2567,3.2603,3.262,0,0,3.2239,3.223,3.2273,3.224,3.2323,3.228,3.2367,3.2393,3.2391,3.2444,3.2447,3.2513,3.2529,3.2569,3.2712,3.2725,0,0,0,3.2301,3.2332,3.2353,3.2385,3.2408,3.2427,3.2439,3.2448,3.2493,3.242,3.2539,3.2549,3.2572,3.2589,3.26,3.2618,3.2479,3.2479,3.2479,3.2428,3.2423,3.2492,3.2494,3.2526,3.2538,3.2562,3.2576,3.2561,3.2589,3.2604,3.2692,3.2712,3.272,3.274,3.2625,3.2625,3.2625,3.2625,3.255,3.2592,3.2571,3.2631,3.2624,3.2673,3.2686,3.2674,3.2717,3.268,3.27,3.2659,3.2735,3.2751,3.2628,3.2628,3.2627,3.2627,3.2627,3.2631,3.265,3.2661,3.2707,3.2742,3.2742,3.2784,3.2777,3.277,3.279,3.2803,3.2803,3.2799,3.2797,3.2798,3.2798,3.2798,3.2799,3.2799,3.2709,3.272,3.2758,3.2787,3.2806,3.283,3.2841,3.2859,3.2877,3.2868,3.2868,3.2848,3.2744,3.2717,3.2803,3.2803,3.2802,3.2801,3.2801,3.2832,3.2803,3.2861,3.2881,3.2912,3.2946,3.2937,3.2974,3.2988,3.3009,3.2985,3.291,3.29,3.2891,3.2868,3.2988,3.2988,3.2988,3.2988,3.2898,3.2893,3.295,3.2981,3.301,3.3007,3.307,3.3079,3.3084,3.3091,3.3073,3.3043,3.3034,3.3028,3.3017,3.2995,3.3145,3.3145,3.3145,3.2972,3.2969,3.3025,3.303,3.3054,3.3074,3.3132,3.3167,3.3166,3.3151,3.3096,3.309,3.3041,3.3026,3.3008,3.299,3.295,0,0]}]]